E0445 Weather Reports


time (UTC)temp
C
wind
direction
speed
KPH
gust
KPH
rain 1hr
cm
rain 24hr
cm
rain mn
cm
humidity
%
barometer
mb
20260504110512 5 190 1.6 4.8 0.00 0.00 0.00 74 1011.8
20260504100513 1 0 0.0 3.2 0.00 0.00 0.00 84 1011.6
20260504081530 1 355 0.0 4.8 0.00 0.00 0.00 85 1011.9
20260504081013 1 355 1.6 4.8 0.00 0.00 0.00 84 1011.9
20260504080513 1 355 0.0 3.2 0.00 0.00 0.00 85 1011.9
20260504050511 3 0 0.0 0.0 0.00 0.00 0.00 76 1011.6
20260504045511 3 0 0.0 0.0 0.00 0.00 0.00 75 1011.6
20260504045011 3 0 0.0 0.0 0.00 0.00 0.00 76 1011.6
20260504044535 3 0 0.0 0.0 0.00 0.00 0.00 75 1011.6
20260504044011 3 0 0.0 0.0 0.00 0.00 0.00 75 1011.6
20260504043512 3 0 0.0 0.0 0.00 0.00 0.00 75 1011.6
20260504043040 3 0 0.0 0.0 0.00 0.00 0.00 74 1011.6
20260504042511 4 0 0.0 0.0 0.00 0.00 0.00 73 1011.6
20260504042014 4 0 0.0 0.0 0.00 0.00 0.00 73 1011.6
20260504041528 4 0 0.0 0.0 0.00 0.00 0.00 72 1011.5
20260504041011 4 0 0.0 0.0 0.00 0.00 0.00 72 1011.5
20260504040513 4 0 0.0 0.0 0.00 0.00 0.00 72 1011.5
20260504040033 5 0 0.0 0.0 0.00 0.00 0.00 71 1011.5
20260504035514 5 0 0.0 0.0 0.00 0.00 0.00 70 1011.5
20260504035012 5 0 0.0 0.0 0.00 0.00 0.00 69 1011.6
20260504034534 5 0 0.0 0.0 0.00 0.00 0.00 68 1011.5
20260504034014 5 0 0.0 0.0 0.00 0.00 0.00 68 1011.5
20260504033514 5 0 0.0 0.0 0.00 0.00 0.00 67 1011.4
20260504033029 6 0 0.0 0.0 0.00 0.00 0.00 66 1011.4
20260504032513 6 0 0.0 0.0 0.00 0.00 0.00 65 1011.5
20260504032015 6 0 0.0 0.0 0.00 0.00 0.00 63 1011.4
20260504031530 7 0 0.0 0.0 0.00 0.00 0.00 63 1011.4
20260504031012 7 0 0.0 0.0 0.00 0.00 0.00 63 1011.4
20260504030513 7 0 0.0 0.0 0.00 0.00 0.00 62 1011.4
20260504030030 7 0 0.0 0.0 0.00 0.00 0.00 63 1011.4
20260504025515 7 0 0.0 0.0 0.00 0.00 0.00 62 1011.4
20260504025014 7 0 0.0 0.0 0.00 0.00 0.00 63 1011.4
20260504024530 7 0 0.0 0.0 0.00 0.00 0.00 62 1011.4
20260504024013 7 0 0.0 0.0 0.00 0.00 0.00 63 1011.5
20260504023513 7 0 0.0 0.0 0.00 0.00 0.00 64 1011.4
20260504023031 6 0 0.0 0.0 0.00 0.00 0.00 65 1011.5
20260504022514 6 0 0.0 0.0 0.00 0.00 0.00 65 1011.5
20260504022012 6 0 0.0 0.0 0.00 0.00 0.00 65 1011.5
20260504021534 6 0 0.0 0.0 0.00 0.00 0.00 65 1011.5
20260504021012 6 0 0.0 0.0 0.00 0.00 0.00 64 1011.5
20260504020512 7 0 0.0 0.0 0.00 0.00 0.00 64 1011.6
20260504020037 7 0 0.0 0.0 0.00 0.00 0.00 64 1011.4
20260504015513 6 0 0.0 0.0 0.00 0.00 0.00 64 1011.3
20260504015014 6 0 0.0 0.0 0.00 0.00 0.00 65 1011.4
20260504014536 6 0 0.0 0.0 0.00 0.00 0.00 65 1011.4
20260504014013 6 0 0.0 0.0 0.00 0.00 0.00 65 1011.3
20260504013515 6 0 0.0 0.0 0.00 0.00 0.00 65 1011.3
20260504013031 6 0 0.0 0.0 0.00 0.00 0.00 65 1011.2
20260504012513 6 0 0.0 0.0 0.00 0.00 0.00 65 1011.2
20260504012013 6 0 0.0 0.0 0.00 0.00 0.00 65 1011.1
20260504011529 6 0 0.0 0.0 0.00 0.00 0.00 64 1011.2
20260504011012 7 0 0.0 0.0 0.00 0.00 0.00 63 1011.1
20260504010516 7 0 0.0 0.0 0.00 0.00 0.00 63 1011.0
20260504010030 7 0 0.0 0.0 0.00 0.00 0.00 63 1011.0
20260504005514 7 0 0.0 0.0 0.00 0.00 0.00 63 1011.0
20260504005011 7 0 0.0 0.0 0.00 0.00 0.00 63 1010.8
20260504004534 7 0 0.0 0.0 0.00 0.00 0.00 63 1011.0
20260504004013 7 0 0.0 0.0 0.00 0.00 0.00 63 1010.9
20260504003514 7 0 0.0 0.0 0.00 0.00 0.00 62 1010.9
20260504003032 7 0 0.0 0.0 0.00 0.00 0.00 62 1010.9
20260504002512 7 0 0.0 0.0 0.00 0.00 0.00 61 1010.9
20260504002014 7 0 0.0 0.0 0.00 0.00 0.00 61 1010.8
20260504001535 8 0 0.0 0.0 0.00 0.00 0.00 59 1010.7
20260504001013 8 0 0.0 0.0 0.00 0.00 0.00 59 1010.7
20260504000512 9 0 0.0 1.6 0.00 0.00 0.00 57 1010.7
20260504000029 10 0 0.0 4.8 0.00 0.00 0.00 55 1010.7
20260503235516 10 0 0.0 4.8 0.00 0.00 0.00 52 1010.7
20260503235013 11 0 0.0 1.6 0.00 0.00 0.00 53 1010.6
20260503234530 11 0 0.0 4.8 0.00 0.00 0.00 51 1010.6
20260503234012 11 0 0.0 4.8 0.00 0.00 0.00 53 1010.7
20260503233513 11 261 1.6 6.4 0.00 0.00 0.00 53 1010.6
20260503233030 11 0 1.6 6.4 0.00 0.00 0.00 48 1010.6
20260503232515 11 304 1.6 8.0 0.00 0.00 0.00 48 1010.6
20260503232015 11 298 3.2 14.5 0.00 0.00 0.00 47 1010.5
20260503231532 11 288 3.2 17.7 0.00 0.00 0.00 48 1010.6
20260503231011 11 284 9.7 17.7 0.00 0.00 0.00 46 1010.6
20260503230514 11 290 4.8 16.1 0.00 0.00 0.00 46 1010.6
20260503230032 11 278 4.8 16.1 0.00 0.00 0.00 46 1010.6
20260503225513 12 316 6.4 22.5 0.00 0.00 0.00 45 1010.5
20260503225013 12 300 14.5 22.5 0.00 0.00 0.00 45 1010.5
20260503224529 12 264 6.4 22.5 0.00 0.00 0.00 44 1010.4
20260503224013 12 285 9.7 19.3 0.00 0.00 0.00 46 1010.5
20260503223513 12 325 9.7 17.7 0.00 0.00 0.00 45 1010.5
20260503223031 12 273 8.0 16.1 0.00 0.00 0.00 45 1010.5
20260503222513 12 278 8.0 16.1 0.00 0.00 0.00 45 1010.6
20260503222013 12 319 4.8 16.1 0.00 0.00 0.00 45 1010.5
20260503221533 12 292 6.4 20.9 0.00 0.00 0.00 45 1010.5
20260503221016 12 292 8.0 20.9 0.00 0.00 0.00 46 1010.6
20260503220516 12 290 9.7 19.3 0.00 0.00 0.00 45 1010.6
20260503220029 12 294 8.0 19.3 0.00 0.00 0.00 46 1010.6
20260503215514 12 334 9.7 30.6 0.00 0.00 0.00 44 1010.5
20260503215010 12 282 12.9 30.6 0.00 0.00 0.00 43 1010.4
20260503214540 13 294 12.9 30.6 0.00 0.00 0.00 44 1010.4
20260503214013 12 236 12.9 24.1 0.00 0.00 0.00 46 1010.5
20260503213512 12 32 11.3 20.9 0.00 0.00 0.00 46 1010.5
20260503213031 12 263 11.3 20.9 0.00 0.00 0.00 44 1010.5
20260503212514 12 293 8.0 17.7 0.00 0.00 0.00 46 1010.5
20260503212014 12 307 8.0 19.3 0.00 0.00 0.00 46 1010.5
20260503211534 12 297 9.7 24.1 0.00 0.00 0.00 46 1010.6
20260503211013 12 355 11.3 24.1 0.00 0.00 0.00 47 1010.6
20260503210514 11 273 8.0 32.2 0.00 0.00 0.00 46 1010.6
20260503210033 11 308 12.9 32.2 0.00 0.00 0.00 44 1010.6
20260503205513 12 261 14.5 25.7 0.00 0.00 0.00 44 1010.4
20260503205013 12 269 12.9 25.7 0.00 0.00 0.00 43 1010.4
20260503204534 12 248 14.5 24.1 0.00 0.00 0.00 42 1010.4
20260503204014 12 308 9.7 29.0 0.00 0.00 0.00 43 1010.3
20260503203510 12 252 11.3 29.0 0.00 0.00 0.00 42 1010.3
20260503203036 12 312 11.3 25.7 0.00 0.00 0.00 41 1010.3
20260503202514 12 9 11.3 32.2 0.00 0.00 0.00 43 1010.3
20260503202015 12 325 14.5 32.2 0.00 0.00 0.00 41 1010.3
20260503201532 12 325 12.9 24.1 0.00 0.00 0.00 43 1010.3
20260503201016 12 325 12.9 32.2 0.00 0.00 0.00 40 1010.3
20260503200513 12 256 17.7 32.2 0.00 0.00 0.00 39 1010.3
20260503200037 13 260 6.4 24.1 0.00 0.00 0.00 40 1010.3
20260503195510 12 329 12.9 29.0 0.00 0.00 0.00 41 1010.3
20260503195013 12 292 14.5 29.0 0.00 0.00 0.00 40 1010.4
20260503194532 12 276 14.5 22.5 0.00 0.00 0.00 40 1010.5
20260503194013 12 279 11.3 22.5 0.00 0.00 0.00 42 1010.4
20260503193513 11 23 11.3 20.9 0.00 0.00 0.00 40 1010.5
20260503193036 11 324 11.3 20.9 0.00 0.00 0.00 42 1010.7
20260503192512 11 339 11.3 19.3 0.00 0.00 0.00 40 1010.8
20260503192011 12 299 8.0 24.1 0.00 0.00 0.00 41 1010.9
20260503191531 11 289 11.3 24.1 0.00 0.00 0.00 39 1010.7
20260503191013 11 275 12.9 24.1 0.00 0.00 0.00 39 1010.9
20260503190513 12 329 9.7 32.2 0.00 0.00 0.00 42 1010.9
20260503190032 12 294 16.1 32.2 0.00 0.00 0.00 39 1011.0
20260503185513 12 317 11.3 25.7 0.00 0.00 0.00 47 1011.1
20260503185015 11 259 9.7 24.1 0.00 0.00 0.00 39 1011.1
20260503184540 11 297 11.3 32.2 0.00 0.00 0.00 42 1011.3
20260503184013 11 265 17.7 32.2 0.00 0.00 0.00 40 1011.4
20260503183510 11 329 14.5 27.4 0.00 0.00 0.00 43 1011.4
20260503183035 11 305 14.5 27.4 0.00 0.00 0.00 44 1011.5
20260503182515 11 24 14.5 24.1 0.00 0.00 0.00 47 1011.4
20260503182015 10 294 6.4 24.1 0.00 0.00 0.00 44 1011.6
20260503181530 10 5 11.3 25.7 0.00 0.00 0.00 47 1011.7
20260503181011 10 288 12.9 25.7 0.00 0.00 0.00 44 1011.7
20260503180510 10 346 12.9 24.1 0.00 0.00 0.00 47 1011.6
20260503180044 9 302 9.7 25.7 0.00 0.00 0.00 48 1011.8
20260503175513 9 302 11.3 27.4 0.00 0.00 0.00 45 1011.9
20260503175012 9 315 8.0 27.4 0.00 0.00 0.00 47 1011.9
20260503174542 9 306 16.1 27.4 0.00 0.00 0.00 46 1012.0
20260503174013 9 332 11.3 27.4 0.00 0.00 0.00 45 1012.1
20260503173513 9 277 16.1 27.4 0.00 0.00 0.00 44 1012.1
20260503173040 9 258 12.9 27.4 0.00 0.00 0.00 44 1012.1
20260503172512 9 273 9.7 27.4 0.00 0.00 0.00 44 1012.1
20260503172013 10 265 11.3 25.7 0.00 0.00 0.00 45 1012.1
20260503171534 9 23 9.7 19.3 0.00 0.00 0.00 50 1012.1
20260503171013 9 309 8.0 19.3 0.00 0.00 0.00 46 1012.2
20260503170513 9 316 9.7 19.3 0.00 0.00 0.00 44 1012.2
20260503151013 8 331 6.4 24.1 0.00 0.00 0.00 50 1012.9
20260503150517 8 344 11.3 29.0 0.00 0.00 0.00 51 1012.8
20260503131010 6 300 8.0 24.1 0.00 0.00 0.00 65 1013.3
20260503130513 5 5 8.0 20.9 0.00 0.00 0.00 68 1013.3